South Hill, VA

9:59 PM EDT on June 27, 2017 (GMT -0400)
Mecklenburg-Brunswick Regional

Weather History for KAVC - May, 2014

Change the Weather History Date:

Friday, May 16, 2014

  Actual Average (KEMV) Record (KEMV)
Temperature  
Mean Temperature 64 °F -  
Max Temperature 73 °F 80 °F 90 °F (1991)
Min Temperature 55 °F 52 °F 35 °F (2016)
Degree Days  
Heating Degree Days 1    
Growing Degree Days 14 (Base 50)    
Moisture  
Dew Point 58 °F    
Average Humidity 79    
Maximum Humidity 100    
Minimum Humidity 43    
Precipitation  
Precipitation 1.51 in - - ()
Sea Level Pressure  
Sea Level Pressure 29.93 in    
Wind  
Wind Speed 9 mph (WSW)    
Max Wind Speed 25 mph    
Max Gust Speed 32 mph    
Visibility 10 miles    
Events Rain    
Averages and records for this station are not official NWS values.
T = Trace of Precipitation, MM = Missing Value Source: NWS Daily Summary

Daily Weather History Graph

Daily Weather History Graph

Search for Another Location

Airport or City:

Trip Planner

Search our weather history database for the weather conditions in past years. The results will help you decide how hot, cold, wet, or windy it might be!

Date:

Astronomy

May. 16, 2014 Rise Set
Actual Time 6:04 AM EDT 8:13 PM EDT
Civil Twilight 5:35 AM EDT 8:42 PM EDT
Nautical Twilight 4:59 AM EDT 9:18 PM EDT
Astronomical Twilight 4:21 AM EDT 9:56 PM EDT
Moon 10:18 PM EDT (5/16) 7:43 AM EDT (5/16)
Length of Visible Light 15h 07m
Length of Day
14h 09m
Waning Gibbous, 95% of the Moon is Illuminated
May 16
Waning Gibbous
May 21
Last Quarter
May 28
New
Jun 5
First Quarter
Jun 13
Full

Hourly Weather History & Observations

Time (EDT) Temp. Dew Point Humidity Pressure Visibility Wind Dir Wind Speed Gust Speed Precip Events Conditions
12:15 AM 71.6 °F 71.6 °F 100% 29.91 in 10.0 mi SSE 13.8 mph 24.2 mph 0.08 in Rain Rain
12:35 AM 71.6 °F 71.6 °F 100% 29.90 in 7.0 mi SSE 13.8 mph 23.0 mph 0.17 in Rain Heavy Rain
12:55 AM 71.6 °F 71.6 °F 100% 29.87 in 10.0 mi SE 10.4 mph 16.1 mph 0.02 in Rain Rain
1:15 AM 71.6 °F 71.6 °F 100% 29.87 in 7.0 mi SSE 17.3 mph 23.0 mph 0.08 in Rain Heavy Rain
1:35 AM 69.8 °F 69.8 °F 100% 29.87 in 1.0 mi South 25.3 mph 32.2 mph 1.07 in Rain Heavy Rain
2:15 AM 71.6 °F 71.6 °F 100% 29.86 in 10.0 mi SSE 13.8 mph 18.4 mph N/A   Overcast
2:35 AM 71.6 °F 71.6 °F 100% 29.85 in 10.0 mi SSE 12.7 mph 20.7 mph N/A Rain Light Rain
2:55 AM 71.6 °F 71.6 °F 100% 29.85 in 10.0 mi South 11.5 mph 23.0 mph 0.01 in Rain Rain
3:15 AM 71.6 °F 71.6 °F 100% 29.85 in 7.0 mi South 11.5 mph 20.7 mph 0.05 in Rain Heavy Rain
3:35 AM 71.6 °F 71.6 °F 100% 29.85 in 7.0 mi South 12.7 mph 18.4 mph 0.27 in Rain Rain
3:55 AM 66.2 °F 66.2 °F 100% 29.86 in 7.0 mi WNW 6.9 mph 16.1 mph 0.03 in Rain Heavy Rain
4:15 AM 64.4 °F 64.4 °F 100% 29.87 in 5.0 mi West 4.6 mph - 0.05 in Rain Light Rain
4:35 AM 62.6 °F 62.6 °F 100% 29.88 in 10.0 mi WSW 8.1 mph - 0.11 in Rain Light Rain
4:55 AM 60.8 °F 60.8 °F 100% 29.88 in 7.0 mi West 5.8 mph - 0.01 in Rain Light Rain
5:15 AM 60.8 °F 60.8 °F 100% 29.88 in 7.0 mi WNW 4.6 mph - 0.02 in Rain Rain
5:35 AM 60.8 °F 60.8 °F 100% 29.89 in 10.0 mi West 6.9 mph - 0.02 in   Overcast
5:55 AM 60.8 °F 60.8 °F 100% 29.89 in 10.0 mi West 5.8 mph - 0.01 in Rain Light Rain
6:15 AM 59.0 °F 59.0 °F 100% 29.90 in 7.0 mi West 6.9 mph - 0.01 in   Light Drizzle
6:35 AM 59.0 °F 59.0 °F 100% 29.90 in 10.0 mi West 4.6 mph - 0.01 in   Overcast
6:55 AM 59.0 °F 59.0 °F 100% 29.91 in 10.0 mi West 4.6 mph - N/A   Overcast
7:15 AM 57.2 °F 57.2 °F 100% 29.91 in 10.0 mi West 3.5 mph - N/A   Overcast
7:35 AM 57.2 °F 57.2 °F 100% 29.92 in 10.0 mi West 3.5 mph - N/A   Overcast
7:55 AM 57.2 °F 57.2 °F 100% 29.92 in 10.0 mi WNW 3.5 mph - N/A   Overcast
8:15 AM 59.0 °F 57.2 °F 94% 29.92 in 10.0 mi NW 4.6 mph - N/A   Overcast
8:35 AM 59.0 °F 59.0 °F 100% 29.92 in 10.0 mi WNW 4.6 mph - N/A   Overcast
8:55 AM 60.8 °F 57.2 °F 88% 29.93 in 10.0 mi West 6.9 mph - N/A   Overcast
9:15 AM 62.6 °F 59.0 °F 88% 29.93 in 10.0 mi WNW 4.6 mph - N/A   Scattered Clouds
9:35 AM 62.6 °F 57.2 °F 82% 29.94 in 10.0 mi WNW 6.9 mph - N/A   Scattered Clouds
9:55 AM 62.6 °F 57.2 °F 82% 29.94 in 10.0 mi WNW 5.8 mph - N/A   Mostly Cloudy
10:15 AM 64.4 °F 57.2 °F 77% 29.95 in 10.0 mi NW 3.5 mph - N/A   Mostly Cloudy
10:35 AM 66.2 °F 57.2 °F 73% 29.95 in 10.0 mi West 8.1 mph - N/A   Mostly Cloudy
10:55 AM 66.2 °F 55.4 °F 68% 29.95 in 10.0 mi West 5.8 mph - N/A   Scattered Clouds
11:15 AM 66.2 °F 57.2 °F 73% 29.95 in 10.0 mi WNW 4.6 mph - N/A   Scattered Clouds
11:35 AM 68.0 °F 55.4 °F 64% 29.95 in 10.0 mi West 6.9 mph - N/A   Scattered Clouds
11:55 AM 69.8 °F 57.2 °F 64% 29.95 in 10.0 mi West 4.6 mph - N/A   Scattered Clouds
12:15 PM 69.8 °F 57.2 °F 64% 29.95 in 10.0 mi West 6.9 mph - N/A   Clear
12:35 PM 71.6 °F 55.4 °F 57% 29.95 in 10.0 mi WNW 8.1 mph - N/A   Clear
12:55 PM 71.6 °F 57.2 °F 60% 29.94 in 10.0 mi WSW 5.8 mph - N/A   Clear
1:15 PM 71.6 °F 57.2 °F 60% 29.93 in 10.0 mi West 8.1 mph - N/A   Scattered Clouds
1:35 PM 73.4 °F 55.4 °F 53% 29.93 in 10.0 mi WSW 8.1 mph - N/A   Scattered Clouds
1:55 PM 71.6 °F 53.6 °F 53% 29.93 in 10.0 mi West 5.8 mph - N/A   Scattered Clouds
2:15 PM 73.4 °F 55.4 °F 53% 29.93 in 10.0 mi SW 9.2 mph 17.3 mph N/A   Scattered Clouds
2:35 PM 73.4 °F 55.4 °F 53% 29.93 in 10.0 mi West 10.4 mph 17.3 mph N/A   Clear
2:55 PM 71.6 °F 55.4 °F 57% 29.93 in 10.0 mi SW 9.2 mph - N/A   Clear
3:15 PM 71.6 °F 53.6 °F 53% 29.93 in 10.0 mi SW 9.2 mph 16.1 mph N/A   Scattered Clouds
3:35 PM 71.6 °F 51.8 °F 50% 29.93 in 10.0 mi WSW 9.2 mph - N/A   Clear
3:55 PM 73.4 °F 53.6 °F 50% 29.92 in 10.0 mi WSW 8.1 mph 18.4 mph N/A   Clear
4:15 PM 71.6 °F 51.8 °F 50% 29.92 in 10.0 mi WSW 10.4 mph - N/A   Clear
4:35 PM 71.6 °F 51.8 °F 50% 29.92 in 10.0 mi WSW 6.9 mph 18.4 mph N/A   Clear
4:55 PM 71.6 °F 51.8 °F 50% 29.92 in 10.0 mi SW 9.2 mph - N/A   Clear
5:15 PM 71.6 °F 48.2 °F 43% 29.92 in 10.0 mi WSW 6.9 mph - N/A   Clear
5:35 PM 71.6 °F 50.0 °F 46% 29.92 in 10.0 mi West 8.1 mph - N/A   Clear
5:55 PM 71.6 °F 50.0 °F 46% 29.93 in 10.0 mi West 4.6 mph - N/A   Clear
6:15 PM 71.6 °F 48.2 °F 43% 29.94 in 10.0 mi West 5.8 mph - N/A   Clear
6:35 PM 69.8 °F 48.2 °F 46% 29.95 in 10.0 mi West 4.6 mph - N/A   Clear
6:55 PM 69.8 °F 48.2 °F 46% 29.95 in 10.0 mi WSW 8.1 mph - N/A   Clear
7:15 PM 69.8 °F 50.0 °F 49% 29.96 in 10.0 mi Calm Calm - N/A   Clear
7:35 PM 68.0 °F 51.8 °F 56% 29.97 in 10.0 mi Calm Calm - N/A   Clear
7:55 PM 66.2 °F 51.8 °F 60% 29.98 in 10.0 mi Calm Calm - N/A   Clear
8:15 PM 62.6 °F 55.4 °F 77% 29.98 in 10.0 mi Calm Calm - N/A   Clear
8:35 PM 60.8 °F 57.2 °F 88% 29.99 in 10.0 mi Calm Calm - N/A   Clear
8:55 PM 60.8 °F 53.6 °F 77% 30.00 in 10.0 mi Calm Calm - N/A   Clear
9:15 PM 57.2 °F 57.2 °F 100% 30.00 in 10.0 mi Calm Calm - N/A   Clear
9:35 PM 57.2 °F 57.2 °F 100% 30.01 in 10.0 mi Calm Calm - N/A   Clear
9:55 PM 57.2 °F 57.2 °F 100% 30.02 in 10.0 mi Calm Calm - N/A   Clear
10:15 PM 57.2 °F 57.2 °F 100% 30.02 in 10.0 mi Calm Calm - N/A   Clear
10:35 PM 55.4 °F 55.4 °F 100% 30.03 in 10.0 mi Calm Calm - N/A   Scattered Clouds
10:55 PM 55.4 °F 55.4 °F 100% 30.03 in 10.0 mi Calm Calm - N/A   Scattered Clouds
11:15 PM 55.4 °F 55.4 °F 100% 30.03 in 10.0 mi SSW 3.5 mph - N/A   Mostly Cloudy
11:35 PM 57.2 °F 55.4 °F 94% 30.04 in 10.0 mi WSW 5.8 mph - N/A   Mostly Cloudy
11:55 PM 60.8 °F 51.8 °F 72% 30.04 in 10.0 mi WNW 4.6 mph - N/A   Overcast